Location: Sungai Bunut
(2.6333°N, 113.7333°E)
Time: 19:20:25
(UTC+00:00)

ASTRO E2 - Pass Details

Date: 16 October 2021
Orbit: 505 x 511 km, 31.4° (Epoch: 08 December)

Event Time Altitude Azimuth Distance (km) Brightness Sun altitude
Exits shadow 21:42:14 - 257° (WSW) 1,902 5.0 -7.4°
Reaches altitude 10° 21:42:46 10° 260° (W) 1,707 4.7 -7.3°
Maximum altitude 21:46:23 36° 327° (NNW) 814 3.4 -6.4°
Drops below altitude 10° 21:50:00 10° 35° (NE) 1,700 5.7 -5.5°
Sets 21:52:21 0° 44° (NE) 2,581 6.8 -4.9°
